YAOGAN-28

Last updated on Mon Sep 21 2026 00:02:46 GMT+0000 (Coordinated Universal Time)

1 41026U 15064A 26263.60852601 .00005343 00000+0 19510-3 0 9999 2 41026 97.3204 40.0781 0009656 205.4595 154.6171 15.28501162605250
UTC large
Height (km)
Speed (km/s)
/
Latitude / Longitude
Inclination (degrees)
Orbital Period (minutes)
Azimuth
Elevation
Range (km)
Doppler Factor

Next 0 passes for location: London (51.5072 / 0.1276)

No passes found over London.
YAOGAN-28